North Pole, Alaska, United States (99705)
Lat: 64.75N, Lon: 147.35W
Wx Zone: AKZ222
Local Info
Past Weather Observations for Wednesday, August 13, 2014

NOTE: This archive is for the closest National Weather Service station to North Pole. Information may differ from the station used for current weather conditions.

Click here for Long-term Archive

Time Weather Temperature Dewpoint Humidity Pressure Winds Precip Visibility
23:56
Partly Cloudy
61°F / 16°C 54°F / 12°C 77% 29.65 in
(1004 mb)
Calm - 10SM
22:56
Mostly Cloudy
61°F / 16°C 54°F / 12°C 77% 29.62 in
(1003 mb)
E 4.6 mph
(E 7 kph)
- 10SM
21:56
Overcast
63°F / 17°C 55°F / 13°C 77% 29.59 in
(1002 mb)
E 6.9 mph
(E 11 kph)
0.00 in
(0.00 mm)
10SM
20:56
Overcast
Light Rain
66°F / 19°C 52°F / 11°C 60% 29.59 in
(1002 mb)
Calm 0.00 in
(0.00 mm)
10SM
19:56
Overcast
70°F / 21°C 52°F / 11°C 53% 29.56 in
(1001 mb)
E 5.8 mph
(E 9 kph)
- 10SM
18:56
Mostly Cloudy
75°F / 24°C 45°F / 7°C 34% 29.56 in
(1001 mb)
SW 3.5 mph
(SW 6 kph)
- 10SM
18:55
Overcast
75°F / 24°C 45°F / 7°C 34% 29.56 in
(1001 mb)
Variable 2.3 mph
(Variable 4 kph)
- 25SM
17:55
Overcast
75°F / 24°C 45°F / 7°C 34% 29.56 in
(1001 mb)
SSE 4.6 mph
(SSE 7 kph)
- 25SM
16:55
Overcast
75°F / 24°C 46°F / 8°C 36% 29.56 in
(1001 mb)
S 3.5 mph
(S 6 kph)
- 25SM
15:55
Mostly Cloudy
77°F / 25°C 45°F / 7°C 32% 29.56 in
(1001 mb)
SE 8.1 mph
(SE 13 kph)
- 25SM
14:55
Mostly Cloudy
75°F / 24°C 46°F / 8°C 36% 29.56 in
(1001 mb)
E 4.6 mph
(E 7 kph)
- 25SM
13:55
Mostly Cloudy
75°F / 24°C 45°F / 7°C 34% 29.56 in
(1001 mb)
ENE 5.8 mph
(ENE 9 kph)
- 25SM
12:55
Mostly Cloudy
75°F / 24°C 46°F / 8°C 36% 29.59 in
(1002 mb)
ESE 4.6 mph
(ESE 7 kph)
- 25SM
11:55
Mostly Cloudy
72°F / 22°C 45°F / 7°C 38% 29.59 in
(1002 mb)
E 6.9 mph
(E 11 kph)
- 25SM
10:55
Mostly Cloudy
70°F / 21°C 46°F / 8°C 43% 29.59 in
(1002 mb)
Variable 4.6 mph
(Variable 7 kph)
- 25SM
09:55
Mostly Cloudy
70°F / 21°C 46°F / 8°C 43% 29.59 in
(1002 mb)
E 6.9 mph
(E 11 kph)
- 25SM
08:55
Mostly Cloudy
64°F / 18°C 46°F / 8°C 52% 29.62 in
(1003 mb)
E 10.4 mph
(E 17 kph)
- 25SM
07:55
Mostly Cloudy
57°F / 14°C 48°F / 9°C 72% 29.62 in
(1003 mb)
ENE 10.4 mph
(ENE 17 kph)
- 25SM
06:55
Mostly Cloudy
52°F / 11°C 46°F / 8°C 82% 29.62 in
(1003 mb)
ENE 9.2 mph
(ENE 15 kph)
- 25SM
05:55
Mostly Cloudy
52°F / 11°C 46°F / 8°C 82% 29.62 in
(1003 mb)
ENE 8.1 mph
(ENE 13 kph)
- 25SM
05:30
Mostly Cloudy
52°F / 11°C 46°F / 8°C 82% 29.62 in
(1003 mb)
E 6.9 mph
(E 11 kph)
- 25SM
04:56
Clear
52°F / 11°C 46°F / 8°C 82% 29.62 in
(1003 mb)
ENE 9.2 mph
(ENE 15 kph)
- 10SM
03:56
Clear
52°F / 11°C 46°F / 8°C 82% 29.62 in
(1003 mb)
ENE 9.2 mph
(ENE 15 kph)
- 10SM
02:56
Clear
52°F / 11°C 48°F / 9°C 88% 29.62 in
(1003 mb)
E 8.1 mph
(E 13 kph)
- 10SM
01:56
Clear
54°F / 12°C 48°F / 9°C 82% 29.62 in
(1003 mb)
ENE 6.9 mph
(ENE 11 kph)
- 10SM
00:56
Clear
55°F / 13°C 50°F / 10°C 82% 29.62 in
(1003 mb)
NE 4.6 mph
(NE 7 kph)
- 10SM
Time Weather Temperature Dewpoint Humidity Pressure Winds Precip Visibility


Weather for websites

WeatherForYou.com, LLC is not responsible for any damages or problems caused by this service. Current weather conditions are obtained from the closest station including government and personal stations which may have varying degrees of accuracy. Weather forecasts are derived from the NOAA NDFD. Like all things, this site belongs to Jesus Christ... He just trusts me to maintain it. If you have any questions or comments email webmaster@weatherforyou.com

Copyright © 2014, WeatherForYou.com LLC. All rights reserved.